SAS5NF EKCH-ENCN

Flight info

Callsign SAS5NF
Flight time 0h 46m
Altitude 32000
Route GOLGA DCT LAGUM L621 AMSEV
Aircraft A320/M-SDE3FGHIRWY/LB1

Departure

Time 2026-04-25 23:25
Airport Copenhagen Kastrup Airport (EKCH)

Arrival

Time 2026-04-26 00:11
Airport Kristiansand Airport (ENCN)
Time Latitude Longitude Altitude Speed Heading
2026-04-25 22:47 55.62694 12.64162 20 ft 0 kts 33°
2026-04-25 22:48 55.62701 12.64171 17 ft 0 kts 33°
2026-04-25 23:11 55.62686 12.64153 17 ft 4 kts 33°
2026-04-25 23:12 55.62667 12.64132 17 ft 3 kts 34°
2026-04-25 23:12 55.62650 12.64101 17 ft 4 kts 77°
2026-04-25 23:12 55.62651 12.64057 18 ft 4 kts 118°
2026-04-25 23:12 55.62648 12.64064 18 ft 4 kts 123°
2026-04-25 23:13 55.62633 12.64104 17 ft 4 kts 123°
2026-04-25 23:13 55.62630 12.64113 17 ft 0 kts 123°
2026-04-25 23:16 55.62630 12.64114 17 ft 0 kts 123°
2026-04-25 23:16 55.62612 12.64161 19 ft 6 kts 123°
2026-04-25 23:16 55.62590 12.64219 17 ft 5 kts 123°
2026-04-25 23:17 55.62572 12.64270 19 ft 6 kts 123°
2026-04-25 23:17 55.62549 12.64333 17 ft 6 kts 122°
2026-04-25 23:17 55.62517 12.64422 17 ft 12 kts 123°
2026-04-25 23:17 55.62472 12.64542 20 ft 11 kts 123°
2026-04-25 23:18 55.62433 12.64648 18 ft 10 kts 124°
2026-04-25 23:18 55.62398 12.64741 18 ft 8 kts 124°
2026-04-25 23:18 55.62367 12.64821 19 ft 7 kts 124°
2026-04-25 23:18 55.62341 12.64893 19 ft 7 kts 123°
2026-04-25 23:19 55.62313 12.64968 18 ft 10 kts 122°
2026-04-25 23:19 55.62276 12.65072 18 ft 12 kts 122°
2026-04-25 23:19 55.62220 12.65175 17 ft 12 kts 167°
2026-04-25 23:19 55.62150 12.65118 17 ft 10 kts 214°
2026-04-25 23:20 55.62096 12.65052 20 ft 9 kts 215°
2026-04-25 23:20 55.62024 12.64968 18 ft 14 kts 213°
2026-04-25 23:20 55.61937 12.64868 18 ft 15 kts 213°
2026-04-25 23:20 55.61844 12.64761 18 ft 17 kts 213°
2026-04-25 23:21 55.61743 12.64646 18 ft 18 kts 213°
2026-04-25 23:21 55.61634 12.64519 19 ft 19 kts 213°
2026-04-25 23:21 55.61516 12.64385 19 ft 21 kts 212°
2026-04-25 23:21 55.61390 12.64240 19 ft 22 kts 213°
2026-04-25 23:22 55.61301 12.64136 19 ft 11 kts 213°
2026-04-25 23:22 55.61238 12.64064 17 ft 13 kts 212°
2026-04-25 23:22 55.61145 12.63958 17 ft 18 kts 213°
2026-04-25 23:23 55.60920 12.63699 17 ft 21 kts 213°
2026-04-25 23:23 55.60812 12.63587 17 ft 17 kts 191°
2026-04-25 23:23 55.60731 12.63695 18 ft 15 kts 129°
2026-04-25 23:23 55.60670 12.63821 19 ft 11 kts 129°
2026-04-25 23:24 55.60694 12.63905 19 ft 11 kts 37°
2026-04-25 23:24 55.60867 12.64164 18 ft 69 kts 41°
2026-04-25 23:24 55.61410 12.64999 21 ft 135 kts 41°
2026-04-25 23:24 55.62224 12.66282 210 ft 167 kts 39°
2026-04-25 23:25 55.63088 12.67645 946 ft 165 kts 36°
2026-04-25 23:25 55.63932 12.68980 1795 ft 161 kts 35°
2026-04-25 23:25 55.64819 12.70225 2391 ft 166 kts 23°
2026-04-25 23:25 55.65969 12.70596 2839 ft 177 kts 352°
2026-04-25 23:26 55.67113 12.69580 3260 ft 196 kts 324°
2026-04-25 23:26 55.68211 12.67921 3684 ft 219 kts 323°
2026-04-25 23:26 55.69436 12.66103 4203 ft 238 kts 323°
2026-04-25 23:26 55.70709 12.64182 5088 ft 242 kts 321°
2026-04-25 23:27 55.71955 12.62147 6038 ft 244 kts 319°
2026-04-25 23:27 55.73231 12.60137 6959 ft 245 kts 321°
2026-04-25 23:27 55.74546 12.58208 7890 ft 245 kts 323°
2026-04-25 23:27 55.75875 12.56325 8843 ft 245 kts 323°
2026-04-25 23:28 55.77208 12.54408 9710 ft 248 kts 322°
2026-04-25 23:28 55.78575 12.52404 10295 ft 261 kts 322°
2026-04-25 23:28 55.80026 12.50273 10652 ft 281 kts 322°
2026-04-25 23:28 55.81583 12.47976 11003 ft 297 kts 322°
2026-04-25 23:29 55.83181 12.45603 11698 ft 300 kts 323°
2026-04-25 23:29 55.84777 12.43221 12563 ft 300 kts 323°
2026-04-25 23:29 55.86365 12.40847 13503 ft 297 kts 323°
2026-04-25 23:29 55.87941 12.38483 14344 ft 296 kts 323°
2026-04-25 23:30 55.89515 12.36121 15063 ft 296 kts 323°
2026-04-25 23:30 55.91094 12.33760 15739 ft 297 kts 323°
2026-04-25 23:30 55.92680 12.31382 16409 ft 299 kts 323°
2026-04-25 23:30 55.94277 12.28986 17008 ft 303 kts 323°
2026-04-25 23:31 55.95909 12.26539 17450 ft 310 kts 324°
2026-04-25 23:31 55.97546 12.24081 18053 ft 312 kts 324°
2026-04-25 23:31 55.99210 12.21574 18601 ft 314 kts 324°
2026-04-25 23:31 56.00885 12.19053 19098 ft 316 kts 324°
2026-04-25 23:32 56.02594 12.16480 19594 ft 318 kts 324°
2026-04-25 23:32 56.04268 12.13955 20071 ft 320 kts 324°
2026-04-25 23:32 56.05974 12.11372 20579 ft 322 kts 324°
2026-04-25 23:32 56.07692 12.08763 21066 ft 324 kts 324°
2026-04-25 23:33 56.09421 12.06140 21529 ft 326 kts 324°
2026-04-25 23:33 56.11155 12.03508 21971 ft 328 kts 324°
2026-04-25 23:33 56.12903 12.00849 22273 ft 332 kts 324°
2026-04-25 23:33 56.14679 11.98144 22673 ft 336 kts 324°
2026-04-25 23:34 56.16461 11.95423 23096 ft 338 kts 324°
2026-04-25 23:34 56.18256 11.92673 23518 ft 340 kts 324°
2026-04-25 23:34 56.20062 11.89901 23885 ft 343 kts 324°
2026-04-25 23:34 56.21880 11.87111 24227 ft 345 kts 324°
2026-04-25 23:35 56.23709 11.84304 24580 ft 347 kts 324°
2026-04-25 23:35 56.25549 11.81479 24926 ft 349 kts 324°
2026-04-25 23:35 56.27396 11.78642 25271 ft 350 kts 324°
2026-04-25 23:35 56.29252 11.75782 25664 ft 352 kts 324°
2026-04-25 23:36 56.31113 11.72906 26006 ft 353 kts 324°
2026-04-25 23:36 56.32350 11.70992 26226 ft 354 kts 324°
2026-04-25 23:36 56.34680 11.66712 26630 ft 362 kts 317°
2026-04-25 23:36 56.36343 11.63297 26946 ft 363 kts 317°
2026-04-25 23:37 56.38013 11.59860 27232 ft 365 kts 317°
2026-04-25 23:37 56.39688 11.56398 27508 ft 367 kts 317°
2026-04-25 23:37 56.41377 11.52903 27722 ft 371 kts 316°
2026-04-25 23:37 56.43077 11.49377 27990 ft 373 kts 316°
2026-04-25 23:38 56.44784 11.45824 28265 ft 375 kts 316°
2026-04-25 23:38 56.46497 11.42254 28567 ft 376 kts 316°
2026-04-25 23:38 56.48205 11.38690 29017 ft 374 kts 316°
2026-04-25 23:38 56.49905 11.35141 29438 ft 373 kts 316°
2026-04-25 23:39 56.51608 11.31592 29779 ft 373 kts 316°
2026-04-25 23:39 56.53306 11.28047 30195 ft 372 kts 316°
2026-04-25 23:39 56.54427 11.25700 30435 ft 371 kts 316°
2026-04-25 23:39 56.56109 11.22174 30756 ft 370 kts 316°
2026-04-25 23:40 56.57793 11.18648 31089 ft 370 kts 316°
2026-04-25 23:40 56.59474 11.15127 31427 ft 369 kts 316°
2026-04-25 23:40 56.61148 11.11604 31757 ft 368 kts 315°
2026-04-25 23:40 56.63357 11.06934 32096 ft 367 kts 316°
2026-04-25 23:41 56.64475 11.04570 32123 ft 365 kts 316°
2026-04-25 23:41 56.67786 10.97569 32133 ft 364 kts 316°
2026-04-25 23:42 56.71086 10.90571 32144 ft 365 kts 315°
2026-04-25 23:42 56.74378 10.83552 32144 ft 364 kts 316°
2026-04-25 23:43 56.77670 10.76529 32140 ft 364 kts 315°
2026-04-25 23:43 56.80958 10.69496 32142 ft 364 kts 316°
2026-04-25 23:44 56.84226 10.62503 32140 ft 364 kts 315°
2026-04-25 23:44 56.87522 10.55424 32118 ft 367 kts 315°
2026-04-25 23:45 56.90831 10.48274 32123 ft 369 kts 315°
2026-04-25 23:45 56.94132 10.41106 32129 ft 368 kts 315°
2026-04-25 23:46 56.97432 10.33926 32182 ft 368 kts 315°
2026-04-25 23:46 57.00716 10.26750 32181 ft 367 kts 315°
2026-04-25 23:47 57.03999 10.19589 32178 ft 366 kts 315°
2026-04-25 23:47 57.07271 10.12433 32171 ft 365 kts 315°
2026-04-25 23:48 57.10536 10.05255 32139 ft 368 kts 314°
2026-04-25 23:48 57.13825 9.97998 32143 ft 370 kts 314°
2026-04-25 23:49 57.17115 9.90709 32145 ft 370 kts 314°
2026-04-25 23:49 57.20404 9.83408 32145 ft 370 kts 314°
2026-04-25 23:50 57.23695 9.76099 32146 ft 370 kts 314°
2026-04-25 23:50 57.26986 9.68761 31815 ft 371 kts 314°
2026-04-25 23:50 57.28630 9.65078 31603 ft 371 kts 314°
2026-04-25 23:51 57.30272 9.61388 31353 ft 371 kts 314°
2026-04-25 23:51 57.31905 9.57712 31095 ft 371 kts 314°
2026-04-25 23:51 57.33542 9.54017 30289 ft 372 kts 313°
2026-04-25 23:51 57.35187 9.50303 29309 ft 373 kts 313°
2026-04-25 23:52 57.36832 9.46593 28581 ft 370 kts 313°
2026-04-25 23:52 57.38446 9.42955 28110 ft 361 kts 314°
2026-04-25 23:52 57.40031 9.39375 27577 ft 355 kts 314°
2026-04-25 23:52 57.41584 9.35858 27032 ft 349 kts 314°
2026-04-25 23:53 57.43091 9.32429 26527 ft 344 kts 314°
2026-04-25 23:53 57.44592 9.29013 26017 ft 339 kts 314°
2026-04-25 23:53 57.46080 9.25645 25416 ft 336 kts 315°
2026-04-25 23:53 57.47593 9.22368 24822 ft 333 kts 316°
2026-04-25 23:54 57.49127 9.19152 24233 ft 331 kts 317°
2026-04-25 23:54 57.50660 9.15979 23646 ft 329 kts 317°
2026-04-25 23:54 57.52183 9.12821 23024 ft 326 kts 317°
2026-04-25 23:54 57.53683 9.09687 22494 ft 322 kts 317°
2026-04-25 23:55 57.55165 9.06569 21779 ft 323 kts 316°
2026-04-25 23:55 57.56632 9.03459 21412 ft 315 kts 316°
2026-04-25 23:55 57.58064 9.00386 20914 ft 315 kts 315°
2026-04-25 23:55 57.59460 8.97176 20069 ft 323 kts 313°
2026-04-25 23:56 57.60831 8.93836 19239 ft 326 kts 312°
2026-04-25 23:56 57.62193 8.90433 18062 ft 330 kts 312°
2026-04-25 23:56 57.63573 8.86962 16499 ft 336 kts 311°
2026-04-25 23:56 57.64976 8.83432 14999 ft 342 kts 311°
2026-04-25 23:57 57.66427 8.79802 14103 ft 350 kts 311°
2026-04-25 23:57 57.67884 8.76170 13296 ft 349 kts 311°
2026-04-25 23:57 57.69342 8.72545 12500 ft 348 kts 310°
2026-04-25 23:57 57.70793 8.68934 11894 ft 344 kts 310°
2026-04-25 23:58 57.72191 8.65443 11755 ft 327 kts 310°
2026-04-25 23:58 57.73523 8.62116 11561 ft 313 kts 311°
2026-04-25 23:58 57.74816 8.58893 11223 ft 306 kts 311°
2026-04-25 23:58 57.76067 8.55772 11076 ft 293 kts 311°
2026-04-25 23:59 57.77254 8.52805 10861 ft 284 kts 311°
2026-04-25 23:59 57.78439 8.49837 10578 ft 278 kts 311°
2026-04-25 23:59 57.79581 8.46974 10333 ft 271 kts 311°
2026-04-25 23:59 57.80693 8.44181 10080 ft 265 kts 311°
2026-04-26 00:00 57.81769 8.41485 9884 ft 258 kts 311°
2026-04-26 00:00 57.82821 8.38841 9745 ft 248 kts 311°
2026-04-26 00:00 57.83840 8.36269 9605 ft 243 kts 311°
2026-04-26 00:00 57.84832 8.33771 9477 ft 235 kts 311°
2026-04-26 00:01 57.85789 8.31356 9337 ft 226 kts 310°
2026-04-26 00:01 57.86719 8.29007 9201 ft 221 kts 310°
2026-04-26 00:01 57.87625 8.26714 9066 ft 218 kts 310°
2026-04-26 00:01 57.88529 8.24435 8928 ft 217 kts 310°
2026-04-26 00:02 57.89425 8.22160 8781 ft 214 kts 310°
2026-04-26 00:02 57.90291 8.19945 8643 ft 207 kts 310°
2026-04-26 00:02 57.91124 8.17796 8498 ft 200 kts 310°
2026-04-26 00:02 57.91949 8.15683 8178 ft 202 kts 310°
2026-04-26 00:03 57.92775 8.13595 7836 ft 195 kts 310°
2026-04-26 00:03 57.93572 8.11558 7513 ft 191 kts 309°
2026-04-26 00:03 57.94352 8.09557 7158 ft 190 kts 309°
2026-04-26 00:03 57.95145 8.07572 6814 ft 189 kts 309°
2026-04-26 00:04 57.95929 8.05611 6546 ft 186 kts 309°
2026-04-26 00:04 57.96737 8.03697 6152 ft 188 kts 311°
2026-04-26 00:04 57.97540 8.01777 5857 ft 185 kts 309°
2026-04-26 00:04 57.98300 7.99836 5586 ft 184 kts 308°
2026-04-26 00:05 57.99050 7.97871 5264 ft 186 kts 308°
2026-04-26 00:05 57.99865 7.95919 4756 ft 193 kts 312°
2026-04-26 00:05 58.00784 7.94078 4437 ft 190 kts 319°
2026-04-26 00:05 58.01817 7.92597 4227 ft 185 kts 330°
2026-04-26 00:06 58.02963 7.91533 4010 ft 182 kts 341°
2026-04-26 00:06 58.04192 7.90960 3855 ft 182 kts 353°
2026-04-26 00:06 58.05447 7.90870 3727 ft 180 kts
2026-04-26 00:06 58.06689 7.91229 3526 ft 180 kts 15°
2026-04-26 00:07 58.07852 7.92005 3280 ft 176 kts 25°
2026-04-26 00:07 58.08887 7.93181 3012 ft 173 kts 36°
2026-04-26 00:07 58.09851 7.94529 2705 ft 170 kts 36°
2026-04-26 00:07 58.10776 7.95796 2480 ft 158 kts 36°
2026-04-26 00:08 58.11650 7.96956 2236 ft 149 kts 34°
2026-04-26 00:08 58.12468 7.98034 2026 ft 139 kts 34°
2026-04-26 00:08 58.13245 7.99057 1798 ft 134 kts 34°
2026-04-26 00:08 58.14009 8.00064 1588 ft 134 kts 34°
2026-04-26 00:09 58.14777 8.01066 1373 ft 134 kts 34°
2026-04-26 00:09 58.15545 8.02083 1166 ft 135 kts 33°
2026-04-26 00:09 58.16306 8.03072 997 ft 132 kts 34°
2026-04-26 00:09 58.17061 8.04065 799 ft 132 kts 34°
2026-04-26 00:10 58.17806 8.05088 627 ft 132 kts 34°
2026-04-26 00:10 58.18567 8.06078 404 ft 132 kts 34°
2026-04-26 00:10 58.19321 8.07070 207 ft 132 kts 36°
2026-04-26 00:10 58.20059 8.08058 76 ft 123 kts 34°
2026-04-26 00:11 58.20648 8.08836 62 ft 67 kts 36°
2026-04-26 00:11 58.20889 8.09167 67 ft 34 kts 36°
2026-04-26 00:11 58.21029 8.09353 60 ft 18 kts 35°
2026-04-26 00:11 58.21088 8.09447 62 ft 9 kts 62°
2026-04-26 00:12 58.21124 8.09483 66 ft 6 kts 290°
2026-04-26 00:12 58.21091 8.09428 65 ft 10 kts 211°
2026-04-26 00:12 58.21022 8.09340 61 ft 13 kts 215°
2026-04-26 00:12 58.20944 8.09235 64 ft 14 kts 216°
2026-04-26 00:13 58.20859 8.09122 60 ft 15 kts 215°
2026-04-26 00:13 58.20780 8.09017 61 ft 13 kts 215°
2026-04-26 00:13 58.20708 8.08922 61 ft 13 kts 215°
2026-04-26 00:13 58.20637 8.08828 58 ft 12 kts 215°
2026-04-26 00:14 58.20573 8.08742 67 ft 11 kts 214°
2026-04-26 00:14 58.20508 8.08657 59 ft 12 kts 215°
2026-04-26 00:14 58.20436 8.08557 68 ft 14 kts 217°
2026-04-26 00:14 58.20429 8.08382 62 ft 17 kts 303°
2026-04-26 00:15 58.20478 8.08180 61 ft 17 kts 261°
2026-04-26 00:15 58.20407 8.07992 63 ft 17 kts 233°
2026-04-26 00:15 58.20352 8.07854 61 ft 12 kts 232°
2026-04-26 00:15 58.20294 8.07728 65 ft 13 kts 219°
2026-04-26 00:16 58.20224 8.07647 65 ft 9 kts 211°
2026-04-26 00:16 58.20198 8.07584 67 ft 5 kts 275°
2026-04-26 00:16 58.20209 8.07546 64 ft 1 kts 302°
2026-04-26 00:16 58.20211 8.07539 67 ft 0 kts 302°
2026-04-26 00:17 58.20212 8.07535 67 ft 1 kts 302°
2026-04-26 00:17 58.20214 8.07531 67 ft 0 kts 302°
2026-04-26 00:17 58.20214 8.07529 67 ft 0 kts 302°